Location: ??
(35.4627°N, 139.3695°E)
Time: 15:54:29
(UTC+00:00)

Meteor 1-4 Rocket - Pass Details

Date: 25 November 2020
Orbit: 449 x 500 km, 81.2° (Epoch: 21 January)

Event Time Altitude Azimuth Distance (km) Brightness Sun altitude
Exits shadow 20:42:20 - 337° (NNW) 2,066 5.4 -9.5°
Reaches altitude 10° 20:43:34 10° 331° (NNW) 1,583 4.7 -9.3°
Maximum altitude 20:46:40 32° 267° (W) 794 3.2 -8.7°
Drops below altitude 10° 20:49:45 10° 202° (SSW) 1,572 5.1 -8.1°
Sets 20:51:56 0° 192° (SSW) 2,441 6.2 -7.7°
